Time,TemperatureF,DewpointF,PressureIn,WindDirection,WindDirectionDegrees,WindSpeedMPH,WindSpeedGustMPH,Humidity,HourlyPrecipIn,Conditions,Clouds,dailyrainin,SoftwareType,DateUTC
2013-05-20 00:02:00,80.0,76.0,29.91,SSE,161,4.0,11.0,87,0.00,,,0.00,,2013-05-20 05:02:00,
2013-05-20 00:12:00,80.0,75.0,29.91,South,178,7.0,13.0,86,0.00,,,0.00,,2013-05-20 05:12:00,
2013-05-20 00:22:00,80.0,75.0,29.91,South,178,7.0,13.0,86,0.00,,,0.00,,2013-05-20 05:22:00,
2013-05-20 00:32:00,80.0,75.0,29.91,SSE,154,5.0,9.0,86,0.00,,,0.00,,2013-05-20 05:32:00,
2013-05-20 00:42:00,80.0,75.0,29.91,SSE,154,5.0,9.0,86,0.00,,,0.00,,2013-05-20 05:42:00,
2013-05-20 00:52:00,80.0,76.0,29.91,SSE,167,7.0,13.0,87,0.00,,,0.00,,2013-05-20 05:52:00,
2013-05-20 01:01:00,80.0,76.0,29.90,South,180,6.0,11.0,87,0.00,,,0.00,,2013-05-20 06:01:00,
2013-05-20 01:11:00,80.0,76.0,29.90,South,180,6.0,11.0,87,0.00,,,0.00,,2013-05-20 06:11:00,
2013-05-20 01:21:00,80.0,76.0,29.90,SSW,192,6.0,14.0,87,0.00,,,0.00,,2013-05-20 06:21:00,
2013-05-20 01:32:00,80.0,76.0,29.90,South,175,5.0,12.0,87,0.00,,,0.00,,2013-05-20 06:32:00,
2013-05-20 01:41:00,80.0,76.0,29.90,South,175,5.0,12.0,87,0.00,,,0.00,,2013-05-20 06:41:00,
2013-05-20 01:52:00,80.0,76.0,29.90,SSE,159,7.0,12.0,87,0.00,,,0.00,,2013-05-20 06:52:00,
2013-05-20 02:01:00,80.0,76.0,29.90,SSE,150,4.0,14.0,87,0.00,,,0.00,,2013-05-20 07:01:00,
2013-05-20 02:12:00,80.0,76.0,29.90,SSE,150,4.0,14.0,87,0.00,,,0.00,,2013-05-20 07:12:00,
2013-05-20 02:21:00,80.0,75.0,29.89,South,177,6.0,11.0,86,0.00,,,0.00,,2013-05-20 07:21:00,
2013-05-20 02:32:00,80.0,75.0,29.89,SSE,167,6.0,12.0,86,0.00,,,0.00,,2013-05-20 07:32:00,
2013-05-20 02:42:00,80.0,75.0,29.89,SSE,167,6.0,12.0,86,0.00,,,0.00,,2013-05-20 07:42:00,
2013-05-20 02:52:00,80.0,75.0,29.89,South,185,8.0,17.0,86,0.00,,,0.00,,2013-05-20 07:52:00,
2013-05-20 03:01:00,80.0,75.0,29.89,South,169,5.0,10.0,86,0.00,,,0.00,,2013-05-20 08:01:00,
2013-05-20 03:11:00,80.0,75.0,29.89,South,169,5.0,10.0,86,0.00,,,0.00,,2013-05-20 08:11:00,
2013-05-20 03:21:00,80.0,75.0,29.88,South,182,8.0,12.0,86,0.00,,,0.00,,2013-05-20 08:21:00,
2013-05-20 03:31:00,80.0,75.0,29.88,SSE,159,5.0,11.0,86,0.00,,,0.00,,2013-05-20 08:31:00,
2013-05-20 03:41:00,80.0,75.0,29.88,SSE,159,5.0,11.0,86,0.00,,,0.00,,2013-05-20 08:41:00,
2013-05-20 03:52:00,80.0,75.0,29.88,South,178,6.0,11.0,86,0.00,,,0.00,,2013-05-20 08:52:00,
2013-05-20 04:01:00,80.0,75.0,29.88,South,171,6.0,12.0,86,0.00,,,0.00,,2013-05-20 09:01:00,
2013-05-20 04:12:00,80.0,75.0,29.88,South,171,6.0,12.0,86,0.00,,,0.00,,2013-05-20 09:12:00,
2013-05-20 04:21:00,80.0,75.0,29.88,SSE,154,6.0,12.0,86,0.00,,,0.00,,2013-05-20 09:21:00,
2013-05-20 04:32:00,80.0,75.0,29.89,SSE,160,7.0,15.0,86,0.00,,,0.00,,2013-05-20 09:32:00,
2013-05-20 04:43:00,80.0,75.0,29.89,SSE,160,7.0,15.0,86,0.00,,,0.00,,2013-05-20 09:43:00,
2013-05-20 04:53:00,80.0,75.0,29.88,South,182,4.0,13.0,86,0.00,,,0.00,,2013-05-20 09:53:00,
2013-05-20 05:03:00,80.0,75.0,29.89,South,189,6.0,17.0,86,0.00,,,0.00,,2013-05-20 10:03:00,
2013-05-20 05:12:00,80.0,75.0,29.89,South,189,6.0,17.0,86,0.00,,,0.00,,2013-05-20 10:12:00,
2013-05-20 05:22:00,80.0,75.0,29.89,South,178,5.0,16.0,86,0.00,,,0.00,,2013-05-20 10:22:00,
2013-05-20 05:32:00,80.0,75.0,29.89,South,187,3.0,10.0,86,0.00,,,0.00,,2013-05-20 10:32:00,
2013-05-20 05:42:00,80.0,75.0,29.89,South,187,3.0,10.0,86,0.00,,,0.00,,2013-05-20 10:42:00,
2013-05-20 05:52:00,79.0,75.0,29.89,SSE,166,6.0,11.0,87,0.00,,,0.00,,2013-05-20 10:52:00,
2013-05-20 06:02:00,79.0,75.0,29.90,SSE,165,4.0,9.0,87,0.00,,,0.00,,2013-05-20 11:02:00,
2013-05-20 06:12:00,79.0,75.0,29.90,SSE,165,4.0,9.0,87,0.00,,,0.00,,2013-05-20 11:12:00,
2013-05-20 06:21:00,79.0,75.0,29.90,SSE,158,4.0,12.0,87,0.00,,,0.00,,2013-05-20 11:21:00,
2013-05-20 06:32:00,79.0,75.0,29.91,SSE,162,4.0,10.0,87,0.00,,,0.00,,2013-05-20 11:32:00,
2013-05-20 06:41:00,79.0,75.0,29.91,SSE,162,4.0,10.0,87,0.00,,,0.00,,2013-05-20 11:41:00,
2013-05-20 06:51:00,79.0,75.0,29.91,SSE,165,4.0,9.0,87,0.00,,,0.00,,2013-05-20 11:51:00,
2013-05-20 07:01:00,79.0,75.0,29.91,SSE,162,1.0,8.0,87,0.00,,,0.00,,2013-05-20 12:01:00,
2013-05-20 07:11:00,79.0,75.0,29.91,SSE,162,1.0,8.0,87,0.00,,,0.00,,2013-05-20 12:11:00,
2013-05-20 07:21:00,79.0,75.0,29.91,South,178,3.0,9.0,87,0.00,,,0.00,,2013-05-20 12:21:00,
2013-05-20 07:31:00,79.0,75.0,29.92,South,169,2.0,9.0,87,0.00,,,0.00,,2013-05-20 12:31:00,
2013-05-20 07:41:00,79.0,75.0,29.92,South,169,2.0,9.0,87,0.00,,,0.00,,2013-05-20 12:41:00,
2013-05-20 07:52:00,79.0,75.0,29.92,South,171,4.0,11.0,87,0.00,,,0.00,,2013-05-20 12:52:00,
2013-05-20 08:01:00,80.0,76.0,29.92,SSE,158,6.0,10.0,87,0.00,,,0.00,,2013-05-20 13:01:00,
2013-05-20 08:11:00,80.0,76.0,29.92,SSE,158,6.0,10.0,87,0.00,,,0.00,,2013-05-20 13:11:00,
2013-05-20 08:22:00,80.0,75.0,29.92,South,182,7.0,14.0,86,0.00,,,0.00,,2013-05-20 13:22:00,
2013-05-20 08:31:00,81.0,76.0,29.93,SSE,156,7.0,13.0,86,0.00,,,0.00,,2013-05-20 13:31:00,
2013-05-20 08:41:00,81.0,76.0,29.93,SSE,156,7.0,13.0,86,0.00,,,0.00,,2013-05-20 13:41:00,
2013-05-20 08:52:00,81.0,76.0,29.93,South,176,5.0,10.0,86,0.00,,,0.00,,2013-05-20 13:52:00,
2013-05-20 09:01:00,81.0,76.0,29.94,SSE,167,3.0,7.0,86,0.00,,,0.00,,2013-05-20 14:01:00,
2013-05-20 09:11:00,81.0,76.0,29.94,SSE,167,3.0,7.0,86,0.00,,,0.00,,2013-05-20 14:11:00,
2013-05-20 09:22:00,81.0,76.0,29.94,South,173,5.0,9.0,86,0.00,,,0.00,,2013-05-20 14:22:00,
2013-05-20 09:32:00,82.0,77.0,29.94,SSE,165,7.0,14.0,85,0.00,,,0.00,,2013-05-20 14:32:00,
2013-05-20 09:41:00,82.0,77.0,29.94,SSE,165,7.0,14.0,85,0.00,,,0.00,,2013-05-20 14:41:00,
2013-05-20 09:52:00,83.0,78.0,29.94,SSE,159,8.0,12.0,84,0.00,,,0.00,,2013-05-20 14:52:00,
2013-05-20 10:01:00,82.0,77.0,29.94,South,180,7.0,13.0,84,0.00,,,0.00,,2013-05-20 15:01:00,
2013-05-20 10:11:00,82.0,77.0,29.94,South,180,7.0,13.0,84,0.00,,,0.00,,2013-05-20 15:11:00,
2013-05-20 10:21:00,84.0,78.0,29.94,SSE,152,5.0,13.0,83,0.00,,,0.00,,2013-05-20 15:21:00,
2013-05-20 10:33:00,85.0,78.0,29.94,South,185,9.0,14.0,81,0.00,,,0.00,,2013-05-20 15:33:00,
2013-05-20 10:42:00,85.0,78.0,29.94,South,185,9.0,14.0,81,0.00,,,0.00,,2013-05-20 15:42:00,
2013-05-20 10:53:00,85.0,78.0,29.93,South,171,7.0,22.0,81,0.00,,,0.00,,2013-05-20 15:53:00,
2013-05-20 11:03:00,85.0,78.0,29.94,South,180,5.0,13.0,79,0.00,,,0.00,,2013-05-20 16:03:00,
2013-05-20 11:12:00,85.0,78.0,29.94,South,180,5.0,13.0,79,0.00,,,0.00,,2013-05-20 16:12:00,
2013-05-20 11:22:00,84.0,78.0,29.93,South,183,7.0,12.0,81,0.00,,,0.00,,2013-05-20 16:22:00,
2013-05-20 11:33:00,84.0,78.0,29.93,South,182,7.0,11.0,81,0.00,,,0.00,,2013-05-20 16:33:00,
2013-05-20 11:42:00,84.0,78.0,29.93,South,182,7.0,11.0,81,0.00,,,0.00,,2013-05-20 16:42:00,
2013-05-20 11:53:00,86.0,79.0,29.93,South,170,6.0,12.0,79,0.00,,,0.00,,2013-05-20 16:53:00,
2013-05-20 12:02:00,88.0,80.0,29.93,SSE,166,3.0,13.0,77,0.00,,,0.00,,2013-05-20 17:02:00,
2013-05-20 12:12:00,88.0,80.0,29.93,SSE,166,3.0,13.0,77,0.00,,,0.00,,2013-05-20 17:12:00,
2013-05-20 12:22:00,87.0,78.0,29.93,South,174,8.0,17.0,75,0.00,,,0.00,,2013-05-20 17:22:00,
2013-05-20 12:33:00,87.0,78.0,29.93,South,186,10.0,14.0,75,0.00,,,0.00,,2013-05-20 17:33:00,
2013-05-20 12:45:00,87.0,78.0,29.93,South,186,10.0,14.0,75,0.00,,,0.00,,2013-05-20 17:45:00,
2013-05-20 12:53:00,87.0,78.0,29.93,South,186,6.0,15.0,75,0.00,,,0.00,,2013-05-20 17:53:00,
2013-05-20 13:02:00,88.0,78.0,29.92,SSE,161,9.0,14.0,73,0.00,,,0.00,,2013-05-20 18:02:00,
2013-05-20 13:12:00,88.0,78.0,29.92,SSE,161,9.0,14.0,73,0.00,,,0.00,,2013-05-20 18:12:00,
2013-05-20 13:23:00,89.0,78.0,29.92,South,180,8.0,14.0,71,0.00,,,0.00,,2013-05-20 18:23:00,
2013-05-20 13:32:00,88.0,77.0,29.92,South,182,10.0,16.0,71,0.00,,,0.00,,2013-05-20 18:32:00,
2013-05-20 13:41:00,88.0,77.0,29.92,South,182,10.0,16.0,71,0.00,,,0.00,,2013-05-20 18:41:00,
2013-05-20 13:55:00,88.0,77.0,29.91,South,184,8.0,15.0,70,0.00,,,0.00,,2013-05-20 18:55:00,
2013-05-20 14:04:00,88.0,77.0,29.91,SSE,148,9.0,17.0,69,0.00,,,0.00,,2013-05-20 19:04:00,
2013-05-20 14:11:00,88.0,77.0,29.91,SSE,148,9.0,17.0,69,0.00,,,0.00,,2013-05-20 19:11:00,
2013-05-20 14:21:00,89.0,78.0,29.91,SSW,194,8.0,15.0,71,0.00,,,0.00,,2013-05-20 19:21:00,
2013-05-20 14:32:00,89.0,78.0,29.91,SSW,194,8.0,13.0,71,0.00,,,0.00,,2013-05-20 19:32:00,
2013-05-20 14:41:00,89.0,78.0,29.91,SSW,194,8.0,13.0,71,0.00,,,0.00,,2013-05-20 19:41:00,
2013-05-20 14:52:00,88.0,77.0,29.91,South,184,7.0,13.0,70,0.00,,,0.00,,2013-05-20 19:52:00,
2013-05-20 15:01:00,88.0,77.0,29.91,SE,134,8.0,14.0,71,0.00,,,0.00,,2013-05-20 20:01:00,
2013-05-20 15:12:00,87.0,78.0,29.90,SSE,149,8.0,14.0,75,0.00,,,0.00,,2013-05-20 20:12:00,
2013-05-20 15:21:00,87.0,78.0,29.90,SSE,149,8.0,14.0,75,0.00,,,0.00,,2013-05-20 20:21:00,
2013-05-20 15:32:00,87.0,78.0,29.89,South,181,8.0,12.0,75,0.00,,,0.00,,2013-05-20 20:32:00,
2013-05-20 15:42:00,86.0,78.0,29.89,SSW,194,5.0,13.0,78,0.00,,,0.00,,2013-05-20 20:42:00,
2013-05-20 15:52:00,86.0,78.0,29.89,SSW,194,5.0,13.0,78,0.00,,,0.00,,2013-05-20 20:52:00,
2013-05-20 16:01:00,86.0,78.0,29.88,SSE,164,5.0,11.0,78,0.00,,,0.00,,2013-05-20 21:01:00,
2013-05-20 16:11:00,85.0,78.0,29.88,South,169,6.0,14.0,79,0.00,,,0.00,,2013-05-20 21:11:00,
2013-05-20 16:21:00,85.0,78.0,29.88,South,169,6.0,14.0,79,0.00,,,0.00,,2013-05-20 21:21:00,
2013-05-20 16:32:00,85.0,78.0,29.88,SSE,162,5.0,12.0,79,0.00,,,0.00,,2013-05-20 21:32:00,
2013-05-20 16:43:00,85.0,78.0,29.87,SSE,167,6.0,9.0,81,0.00,,,0.00,,2013-05-20 21:43:00,
2013-05-20 16:53:00,85.0,78.0,29.87,SSE,167,6.0,9.0,81,0.00,,,0.00,,2013-05-20 21:53:00,
2013-05-20 17:02:00,85.0,78.0,29.87,South,178,7.0,11.0,81,0.00,,,0.00,,2013-05-20 22:02:00,
2013-05-20 17:12:00,85.0,78.0,29.87,South,178,7.0,11.0,81,0.00,,,0.00,,2013-05-20 22:12:00,
2013-05-20 17:23:00,85.0,78.0,29.86,South,180,6.0,11.0,80,0.00,,,0.00,,2013-05-20 22:23:00,
2013-05-20 17:33:00,85.0,78.0,29.85,SSE,156,5.0,13.0,80,0.00,,,0.00,,2013-05-20 22:33:00,
2013-05-20 17:42:00,85.0,78.0,29.85,SSE,156,5.0,13.0,80,0.00,,,0.00,,2013-05-20 22:42:00,
2013-05-20 17:52:00,86.0,79.0,29.85,SSE,161,4.0,12.0,81,0.00,,,0.00,,2013-05-20 22:52:00,
2013-05-20 18:02:00,85.0,78.0,29.85,South,182,6.0,11.0,81,0.00,,,0.00,,2013-05-20 23:02:00,
2013-05-20 18:12:00,85.0,78.0,29.85,South,182,6.0,11.0,81,0.00,,,0.00,,2013-05-20 23:12:00,
2013-05-20 18:22:00,85.0,78.0,29.84,South,177,6.0,11.0,79,0.00,,,0.00,,2013-05-20 23:22:00,
2013-05-20 18:32:00,85.0,78.0,29.84,South,183,5.0,9.0,81,0.00,,,0.00,,2013-05-20 23:32:00,
2013-05-20 18:42:00,85.0,78.0,29.84,South,183,5.0,9.0,81,0.00,,,0.00,,2013-05-20 23:42:00,
2013-05-20 18:53:00,84.0,78.0,29.83,South,182,6.0,9.0,81,0.00,,,0.00,,2013-05-20 23:53:00,
2013-05-20 19:01:00,84.0,78.0,29.83,South,173,5.0,14.0,82,0.00,,,0.00,,2013-05-21 00:01:00,
2013-05-20 19:11:00,84.0,78.0,29.83,South,173,5.0,14.0,82,0.00,,,0.00,,2013-05-21 00:11:00,
2013-05-20 19:21:00,83.0,77.0,29.83,SSE,153,6.0,11.0,83,0.00,,,0.00,,2013-05-21 00:21:00,
2013-05-20 19:31:00,83.0,77.0,29.84,South,175,6.0,12.0,83,0.00,,,0.00,,2013-05-21 00:31:00,
2013-05-20 19:41:00,83.0,78.0,29.84,SSE,167,4.0,12.0,84,0.00,,,0.00,,2013-05-21 00:41:00,
2013-05-20 19:52:00,83.0,78.0,29.84,SSE,167,4.0,12.0,84,0.00,,,0.00,,2013-05-21 00:52:00,
2013-05-20 20:01:00,82.0,77.0,29.84,South,181,7.0,12.0,84,0.00,,,0.00,,2013-05-21 01:01:00,
2013-05-20 20:11:00,82.0,77.0,29.84,South,181,7.0,12.0,84,0.00,,,0.00,,2013-05-21 01:11:00,
2013-05-20 20:21:00,82.0,77.0,29.84,SSE,148,4.0,10.0,85,0.00,,,0.00,,2013-05-21 01:21:00,
2013-05-20 20:32:00,81.0,76.0,29.84,SSE,147,4.0,11.0,86,0.00,,,0.00,,2013-05-21 01:32:00,
2013-05-20 20:42:00,81.0,76.0,29.85,SSE,167,3.0,11.0,86,0.00,,,0.00,,2013-05-21 01:42:00,
2013-05-20 20:53:00,81.0,76.0,29.85,SSE,167,3.0,11.0,86,0.00,,,0.00,,2013-05-21 01:53:00,
2013-05-20 21:02:00,81.0,76.0,29.85,SSE,167,2.0,6.0,86,0.00,,,0.00,,2013-05-21 02:02:00,
2013-05-20 21:11:00,81.0,76.0,29.85,SSE,167,2.0,6.0,86,0.00,,,0.00,,2013-05-21 02:11:00,
2013-05-20 21:21:00,81.0,77.0,29.85,SSE,147,4.0,8.0,87,0.00,,,0.00,,2013-05-21 02:21:00,
2013-05-20 21:32:00,81.0,77.0,29.85,SE,144,4.0,8.0,87,0.00,,,0.00,,2013-05-21 02:32:00,
2013-05-20 21:41:00,81.0,77.0,29.86,SSE,159,3.0,10.0,87,0.00,,,0.00,,2013-05-21 02:41:00,
2013-05-20 21:52:00,81.0,77.0,29.86,SSE,159,3.0,10.0,87,0.00,,,0.00,,2013-05-21 02:52:00,
2013-05-20 22:02:00,81.0,77.0,29.86,SSE,161,7.0,11.0,87,0.00,,,0.00,,2013-05-21 03:02:00,
2013-05-20 22:11:00,81.0,77.0,29.86,SSE,161,7.0,11.0,87,0.00,,,0.00,,2013-05-21 03:11:00,
2013-05-20 22:21:00,81.0,77.0,29.86,SSE,154,4.0,10.0,87,0.00,,,0.00,,2013-05-21 03:21:00,
2013-05-20 22:33:00,81.0,77.0,29.87,SSE,164,5.0,9.0,87,0.00,,,0.00,,2013-05-21 03:33:00,
2013-05-20 22:43:00,81.0,77.0,29.88,South,175,3.0,10.0,87,0.00,,,0.00,,2013-05-21 03:43:00,
2013-05-20 22:53:00,81.0,77.0,29.88,South,175,3.0,10.0,87,0.00,,,0.00,,2013-05-21 03:53:00,
2013-05-20 23:03:00,81.0,77.0,29.88,South,173,5.0,10.0,87,0.00,,,0.00,,2013-05-21 04:03:00,
2013-05-20 23:13:00,81.0,77.0,29.88,South,173,5.0,10.0,87,0.00,,,0.00,,2013-05-21 04:13:00,
2013-05-20 23:23:00,81.0,77.0,29.87,South,180,6.0,11.0,87,0.00,,,0.00,,2013-05-21 04:23:00,
2013-05-20 23:33:00,81.0,77.0,29.87,South,182,4.0,9.0,87,0.00,,,0.00,,2013-05-21 04:33:00,
2013-05-20 23:42:00,81.0,77.0,29.87,South,182,4.0,9.0,87,0.00,,,0.00,,2013-05-21 04:42:00,
2013-05-20 23:53:00,81.0,76.0,29.88,SSW,196,5.0,10.0,86,0.00,,,0.00,,2013-05-21 04:53:00,